Home   Weather   Firenze   Past weeks

Flag for Italy Past Weather in Firenze, Italy — Yesterday and Last 2 Weeks

Now
64 °F

Clear.


Feels Like: 64 °F
Forecast: 53 / 81 °F
Wind: 2 mph from North

Location: Florence / Peretola

Current Time: Sep 25, 2016 at 10:54:52 PM

Latest Report: Sep 25, 2016 at 9:50 PM


Visibility: 10 mi

Pressure: 30.07 "Hg

Humidity: 68%

Dew Point: 54 °F

Location of FirenzeLocation

Past Weather in Firenze — Graph

°F

Firenze Temperature Yesterday

Maximum temperature yesterday: 84 °F (at 2:20 PM)
Minimum temperature yesterday: 59 °F (at 6:50 AM)
Average temperature yesterday: 71 °F

High & Low Weather Summary for the Past Weeks

 TemperatureHumidityPressure
High95 °F (Sep 13, 2:20 PM)100% (Sep 16, 12:50 PM)30.27 "Hg (Sep 16, 12:50 PM)
Low54 °F (Sep 25, 6:50 AM)24% (Sep 13, 1:50 PM)29.77 "Hg (Sep 18, 5:50 PM)
Average72 °F67%29.99 "Hg
* Reported Sep 10 9:20 PM — Sep 25 9:20 PM, Firenze, Weather by CustomWeather, © 2016

Note: Actual official high and low records may vary slightly from our data, if they occured in-between our weather recording intervals... More about our weather records

Advertising

Firenze Weather History for the Previous 24 Hours

Scroll right to see more
 ConditionsComfort  
Time TempWeatherWind HumidityBarometerVisibility
9:20 PM
Sun, Sep 25
66 °FClear.2 mph64%30.07 "Hg10 mi
8:50 PM72 °FClear.1 mph50%30.07 "Hg10 mi
8:20 PM72 °FPassing clouds.3 mph50%30.07 "HgN/A
7:50 PM77 °FClear.2 mph39%30.04 "Hg10 mi
7:20 PM75 °FClear.2 mph41%30.04 "Hg10 mi
6:50 PM77 °FPassing clouds.5 mph39%30.04 "HgN/A
6:20 PM79 °FPassing clouds.8 mph34%30.04 "HgN/A
5:50 PM81 °FPassing clouds.8 mph30%30.04 "HgN/A
5:20 PM82 °FPassing clouds.8 mph25%30.04 "HgN/A
4:50 PM82 °FPassing clouds.8 mph28%30.04 "HgN/A
4:20 PM84 °FPassing clouds.5 mph27%30.04 "HgN/A
3:50 PM82 °FPassing clouds.5 mph26%30.04 "HgN/A
3:20 PM82 °FPassing clouds.5 mph30%30.04 "HgN/A
2:50 PM82 °FPassing clouds.3 mph30%30.07 "HgN/A
2:20 PM82 °FPassing clouds.5 mph32%30.07 "HgN/A
1:50 PM81 °FPassing clouds.2 mph32%30.07 "HgN/A
1:20 PM81 °FPassing clouds.5 mph32%30.09 "HgN/A
12:50 PM81 °FPassing clouds.3 mph34%30.09 "HgN/A
12:20 PM79 °FSunny.3 mph39%30.12 "Hg10 mi
11:50 AM77 °FSunny.2 mph42%30.12 "Hg10 mi
11:20 AM75 °FSunny.2 mph44%30.12 "Hg10 mi
10:50 AM72 °FSunny.1 mph50%30.15 "Hg10 mi
10:20 AM70 °FSunny.1 mph53%30.15 "Hg10 mi
9:50 AM68 °FSunny.1 mph60%30.15 "Hg10 mi
9:20 AM64 °FSunny.2 mph68%30.15 "Hg10 mi
8:50 AM63 °FSunny.1 mph73%30.15 "Hg10 mi
8:20 AM61 °FSunny.No wind77%30.18 "Hg10 mi
7:50 AM57 °FSunny.1 mph82%30.18 "Hg10 mi
7:20 AM55 °FSunny.2 mph82%30.18 "Hg10 mi
6:50 AM54 °FClear.2 mph94%30.18 "Hg10 mi
6:20 AM55 °FPassing clouds.5 mph88%30.18 "HgN/A
5:50 AM55 °FClear.2 mph88%30.18 "Hg10 mi
5:20 AM55 °FClear.No wind88%30.18 "Hg10 mi
4:50 AM55 °FClear.2 mph88%30.18 "Hg10 mi
4:20 AM57 °FClear.2 mph82%30.18 "Hg10 mi
3:50 AM55 °FClear.2 mph88%30.18 "Hg10 mi
3:20 AM61 °FClear.3 mph83%30.18 "Hg10 mi
2:50 AM59 °FClear.No wind88%30.18 "Hg10 mi
2:20 AM59 °FClear.1 mph82%30.18 "Hg10 mi
1:50 AM61 °FClear.1 mph83%30.18 "Hg10 mi
1:20 AM59 °FClear.1 mph88%30.18 "Hg10 mi
12:50 AM61 °FClear.1 mph77%30.18 "Hg10 mi
12:20 AM61 °FClear.1 mph83%30.21 "Hg10 mi
11:50 PM
Sat, Sep 24
63 °FClear.2 mph77%30.21 "Hg10 mi
11:20 PM66 °FClear.3 mph68%30.21 "Hg10 mi
10:50 PM68 °FClear.3 mph64%30.21 "Hg10 mi
10:20 PM70 °FClear.2 mph60%30.21 "Hg10 mi
Weather by CustomWeather, © 2016

See weather overviewHow to use our weather pages